Back to catalog

STARLINK-32763

AliveCommunicationsVLEO
NORAD 62750·PAYLOAD·🇺🇸 United States

Launched Jan 21, 2025 from Cape Canaveral Space Force Station

Loading…

Next Passes (next 24 hours)

TLE

FreshSource: CelesTrak SupGP

Epoch: Sep 14, 2026, 15:14 UTC

1 62750C 25014R   26257.63520833  .00040061  00000+0  14511-2 0  2575
2 62750  43.0025 167.0817 0001504 268.8751 210.4694 15.27557671    16

Track STARLINK-32763 in real time with AllMySat

Download on the App Store